Time,TemperatureF,DewpointF,PressureIn,WindDirection,WindDirectionDegrees,WindSpeedMPH,WindSpeedGustMPH,Humidity,HourlyPrecipIn,Conditions,Clouds,dailyrainin,SolarRadiationWatts/m^2,SoftwareType,DateUTC
2013-01-29 00:00:00,56.0,53.4,60.40,WSW,245,5.0,5.0,91,0.00,,,0.00,0,Wunderground v.1.15,2013-01-29 05:00:00,
2013-01-29 00:05:00,56.1,53.2,60.40,West,271,2.0,5.0,90,0.00,,,0.00,0,Wunderground v.1.15,2013-01-29 05:05:00,
2013-01-29 00:15:00,56.1,53.5,60.40,SW,223,3.0,3.0,91,0.00,,,0.00,0,Wunderground v.1.15,2013-01-29 05:15:00,
2013-01-29 00:25:00,56.1,53.5,60.40,WSW,257,1.0,1.0,91,0.00,,,0.00,0,Wunderground v.1.15,2013-01-29 05:25:00,
2013-01-29 00:29:00,56.1,53.8,60.39,WSW,252,3.0,3.0,92,0.00,,,0.00,0,Wunderground v.1.15,2013-01-29 05:29:00,
2013-01-29 00:30:00,55.9,54.8,30.24,WSW,247,2.0,6.0,96,0.00,,,-99.99,,WeatherLink 5.9.2,2013-01-29 05:30:00,
2013-01-29 00:35:00,56.1,53.8,60.39,West,265,2.0,3.0,92,0.00,,,0.00,0,Wunderground v.1.15,2013-01-29 05:35:00,
2013-01-29 00:40:00,55.8,53.5,60.39,SW,236,1.0,1.0,92,0.00,,,0.00,0,Wunderground v.1.15,2013-01-29 05:40:00,
2013-01-29 00:50:00,56.2,53.9,60.39,West,280,0.0,0.0,92,0.00,,,0.00,0,Wunderground v.1.15,2013-01-29 05:50:00,
2013-01-29 01:00:00,56.2,53.6,60.39,West,259,0.0,0.0,91,0.00,,,0.00,0,Wunderground v.1.15,2013-01-29 06:00:00,
2013-01-29 01:05:00,56.1,54.1,60.38,West,270,0.0,0.0,93,0.00,,,0.00,0,Wunderground v.1.15,2013-01-29 06:05:00,
2013-01-29 01:10:00,56.2,54.2,60.38,WSW,246,0.0,0.0,93,0.00,,,0.00,0,Wunderground v.1.15,2013-01-29 06:10:00,
2013-01-29 01:20:00,55.9,54.8,60.38,SW,219,1.0,1.0,96,0.00,,,0.00,0,Wunderground v.1.15,2013-01-29 06:20:00,
2013-01-29 01:25:00,55.8,54.7,60.38,West,268,2.0,2.0,96,0.00,,,0.00,0,Wunderground v.1.15,2013-01-29 06:25:00,
2013-01-29 01:30:00,55.2,54.1,30.23,WSW,247,1.0,7.0,96,0.00,,,-99.99,,WeatherLink 5.9.2,2013-01-29 06:30:00,
2013-01-29 01:35:00,55.6,54.5,60.38,SW,220,0.0,0.0,96,0.00,,,0.00,0,Wunderground v.1.15,2013-01-29 06:35:00,
2013-01-29 01:40:00,55.6,54.2,60.38,WSW,250,2.0,2.0,95,0.00,,,0.00,0,Wunderground v.1.15,2013-01-29 06:40:00,
2013-01-29 01:50:00,55.4,54.0,60.38,WSW,244,2.0,2.0,95,0.00,,,0.00,0,Wunderground v.1.15,2013-01-29 06:50:00,
2013-01-29 01:55:00,55.4,54.3,60.38,WSW,251,1.0,2.0,96,0.00,,,0.00,0,Wunderground v.1.15,2013-01-29 06:55:00,
2013-01-29 02:00:00,54.6,53.5,30.23,WSW,247,1.0,7.0,96,0.00,,,-99.99,,WeatherLink 5.9.2,2013-01-29 07:00:00,
2013-01-29 02:05:00,55.4,54.3,60.38,WSW,238,3.0,3.0,96,0.00,,,0.00,0,Wunderground v.1.15,2013-01-29 07:05:00,
2013-01-29 02:10:00,55.4,54.3,60.38,WSW,245,1.0,1.0,96,0.00,,,0.00,0,Wunderground v.1.15,2013-01-29 07:10:00,
2013-01-29 02:15:00,55.3,54.2,60.38,WSW,248,0.0,1.0,96,0.00,,,0.00,0,Wunderground v.1.15,2013-01-29 07:15:00,
2013-01-29 02:25:00,55.2,54.1,60.38,WSW,250,0.0,0.0,96,0.00,,,0.00,0,Wunderground v.1.15,2013-01-29 07:25:00,
2013-01-29 02:30:00,55.1,54.0,60.38,WSW,256,0.0,0.0,96,0.00,,,0.00,0,Wunderground v.1.15,2013-01-29 07:30:00,
2013-01-29 02:40:00,54.8,53.7,60.38,WNW,290,1.0,1.0,96,0.00,,,0.00,0,Wunderground v.1.15,2013-01-29 07:40:00,
2013-01-29 02:50:00,54.6,53.5,60.38,WSW,256,1.0,1.0,96,0.00,,,0.00,0,Wunderground v.1.15,2013-01-29 07:50:00,
2013-01-29 02:55:00,54.5,53.4,60.37,WSW,252,1.0,1.0,96,0.00,,,0.00,0,Wunderground v.1.15,2013-01-29 07:55:00,
2013-01-29 03:00:00,53.5,52.4,30.22,West,270,0.0,5.0,96,0.00,,,-99.99,,WeatherLink 5.9.2,2013-01-29 08:00:00,
2013-01-29 03:05:00,54.7,53.6,60.37,WSW,257,3.0,3.0,96,0.00,,,0.00,0,Wunderground v.1.15,2013-01-29 08:05:00,
2013-01-29 03:10:00,54.6,53.5,60.37,West,260,1.0,1.0,96,0.00,,,0.00,0,Wunderground v.1.15,2013-01-29 08:10:00,
2013-01-29 03:15:00,54.6,53.5,60.37,West,270,0.0,1.0,96,0.00,,,0.00,0,Wunderground v.1.15,2013-01-29 08:15:00,
2013-01-29 03:25:00,54.5,53.4,60.37,WNW,293,2.0,2.0,96,0.00,,,0.00,0,Wunderground v.1.15,2013-01-29 08:25:00,
2013-01-29 03:30:00,52.2,51.1,30.21,WSW,247,0.0,4.0,96,0.00,,,-99.99,,WeatherLink 5.9.2,2013-01-29 08:30:00,
2013-01-29 03:35:00,54.1,53.0,60.37,WNW,285,0.0,0.0,96,0.00,,,0.00,0,Wunderground v.1.15,2013-01-29 08:35:00,
2013-01-29 03:40:00,53.9,52.8,60.37,West,272,2.0,2.0,96,0.00,,,0.00,0,Wunderground v.1.15,2013-01-29 08:40:00,
2013-01-29 03:50:00,53.6,52.5,60.37,West,274,1.0,1.0,96,0.00,,,0.00,0,Wunderground v.1.15,2013-01-29 08:50:00,
2013-01-29 04:00:00,53.1,52.0,60.36,West,274,0.0,0.0,96,0.00,,,0.00,0,Wunderground v.1.15,2013-01-29 09:00:00,
2013-01-29 04:10:00,52.5,51.4,60.36,WNW,282,0.0,0.0,96,0.00,,,0.00,0,Wunderground v.1.15,2013-01-29 09:10:00,
2013-01-29 04:20:00,52.2,51.1,60.36,West,267,0.0,0.0,96,0.00,,,0.00,0,Wunderground v.1.15,2013-01-29 09:20:00,
2013-01-29 04:30:00,51.9,50.8,60.36,WSW,244,0.0,0.0,96,0.00,,,0.00,0,Wunderground v.1.15,2013-01-29 09:30:00,
2013-01-29 04:40:00,51.7,50.6,60.35,West,272,0.0,0.0,96,0.00,,,0.00,0,Wunderground v.1.15,2013-01-29 09:40:00,
2013-01-29 04:50:00,52.0,50.9,60.36,West,267,1.0,1.0,96,0.00,,,0.00,0,Wunderground v.1.15,2013-01-29 09:50:00,
2013-01-29 05:00:00,52.1,51.0,60.36,NW,312,0.0,0.0,96,0.00,,,0.00,0,Wunderground v.1.15,2013-01-29 10:00:00,
2013-01-29 05:10:00,51.9,50.8,60.36,WNW,286,1.0,1.0,96,0.00,,,0.00,0,Wunderground v.1.15,2013-01-29 10:10:00,
2013-01-29 05:20:00,51.7,50.6,60.36,WNW,285,0.0,0.0,96,0.00,,,0.00,0,Wunderground v.1.15,2013-01-29 10:20:00,
2013-01-29 05:30:00,51.7,50.6,60.36,West,266,0.0,0.0,96,0.00,,,0.00,0,Wunderground v.1.15,2013-01-29 10:30:00,
2013-01-29 05:40:00,51.5,50.4,60.36,West,260,0.0,0.0,96,0.00,,,0.00,0,Wunderground v.1.15,2013-01-29 10:40:00,
2013-01-29 05:50:00,51.3,50.2,60.36,WSW,252,0.0,0.0,96,0.00,,,0.00,0,Wunderground v.1.15,2013-01-29 10:50:00,
2013-01-29 06:00:00,51.1,50.0,60.36,West,269,0.0,0.0,96,0.00,,,0.00,0,Wunderground v.1.15,2013-01-29 11:00:00,
2013-01-29 06:05:00,51.0,49.9,60.36,West,268,2.0,2.0,96,0.00,,,0.00,0,Wunderground v.1.15,2013-01-29 11:05:00,
2013-01-29 06:15:00,51.0,49.9,60.36,West,270,0.0,0.0,96,0.00,,,0.00,0,Wunderground v.1.15,2013-01-29 11:15:00,
2013-01-29 06:25:00,50.8,49.7,60.36,West,274,0.0,0.0,96,0.00,,,0.00,0,Wunderground v.1.15,2013-01-29 11:25:00,
2013-01-29 06:30:00,50.6,49.5,60.36,West,274,2.0,2.0,96,0.00,,,0.00,0,Wunderground v.1.15,2013-01-29 11:30:00,
2013-01-29 06:40:00,50.5,49.4,60.37,WSW,242,2.0,2.0,96,0.00,,,0.00,0,Wunderground v.1.15,2013-01-29 11:40:00,
2013-01-29 06:50:00,50.2,49.1,60.37,WSW,244,0.0,0.0,96,0.00,,,0.00,0,Wunderground v.1.15,2013-01-29 11:50:00,
2013-01-29 07:00:00,50.1,49.0,60.37,West,265,2.0,2.0,96,0.00,,,0.00,0,Wunderground v.1.15,2013-01-29 12:00:00,
2013-01-29 07:10:00,50.2,49.1,60.37,West,278,0.0,0.0,96,0.00,,,0.00,0,Wunderground v.1.15,2013-01-29 12:10:00,
2013-01-29 07:20:00,50.2,49.1,60.38,WNW,295,0.0,0.0,96,0.00,,,0.00,0,Wunderground v.1.15,2013-01-29 12:20:00,
2013-01-29 07:30:00,50.2,49.1,60.37,West,275,0.0,0.0,96,0.00,,,0.00,0,Wunderground v.1.15,2013-01-29 12:30:00,
2013-01-29 07:35:00,50.3,49.2,60.38,WNW,299,0.0,0.0,96,0.00,,,0.00,0,Wunderground v.1.15,2013-01-29 12:35:00,
2013-01-29 07:45:00,50.7,49.6,60.38,West,268,3.0,5.0,96,0.00,,,0.00,0,Wunderground v.1.15,2013-01-29 12:45:00,
2013-01-29 07:55:00,51.2,50.1,60.38,West,270,4.0,4.0,96,0.00,,,0.00,0,Wunderground v.1.15,2013-01-29 12:55:00,
2013-01-29 08:00:00,51.4,50.3,60.38,West,276,1.0,1.0,96,0.00,,,0.00,0,Wunderground v.1.15,2013-01-29 13:00:00,
2013-01-29 08:10:00,52.0,50.9,60.38,West,276,1.0,1.0,96,0.00,,,0.00,0,Wunderground v.1.15,2013-01-29 13:10:00,
2013-01-29 08:20:00,52.6,51.5,60.37,West,265,4.0,4.0,96,0.00,,,0.00,0,Wunderground v.1.15,2013-01-29 13:20:00,
2013-01-29 08:25:00,53.0,51.9,60.38,West,259,5.0,5.0,96,0.00,,,0.00,0,Wunderground v.1.15,2013-01-29 13:25:00,
2013-01-29 08:30:00,57.7,57.1,30.23,West,270,5.0,13.0,98,0.00,,,-99.99,,WeatherLink 5.9.2,2013-01-29 13:30:00,
2013-01-29 08:35:00,53.7,52.9,60.37,West,276,3.0,4.0,97,0.00,,,0.00,0,Wunderground v.1.15,2013-01-29 13:35:00,
2013-01-29 08:40:00,54.2,53.4,60.37,West,275,3.0,3.0,97,0.00,,,0.00,0,Wunderground v.1.15,2013-01-29 13:40:00,
2013-01-29 08:45:00,54.6,53.5,60.37,West,270,3.0,3.0,96,0.00,,,0.00,0,Wunderground v.1.15,2013-01-29 13:45:00,
2013-01-29 08:55:00,55.8,54.7,60.37,WNW,300,2.0,3.0,96,0.00,,,0.00,0,Wunderground v.1.15,2013-01-29 13:55:00,
2013-01-29 09:00:00,60.1,59.5,30.23,West,270,4.0,10.0,98,0.00,,,-99.99,,WeatherLink 5.9.2,2013-01-29 14:00:00,
2013-01-29 09:05:00,56.6,55.8,60.37,West,265,3.0,5.0,97,0.00,,,0.00,0,Wunderground v.1.15,2013-01-29 14:05:00,
2013-01-29 09:10:00,57.1,56.8,60.37,West,280,3.0,3.0,99,0.00,,,0.00,0,Wunderground v.1.15,2013-01-29 14:10:00,
2013-01-29 09:20:00,57.8,57.5,60.37,WSW,244,4.0,4.0,99,0.00,,,0.00,0,Wunderground v.1.15,2013-01-29 14:20:00,
2013-01-29 09:30:00,58.5,58.2,60.37,West,277,4.0,4.0,99,0.00,,,0.00,0,Wunderground v.1.15,2013-01-29 14:30:00,
2013-01-29 09:35:00,58.8,58.5,60.37,West,259,9.0,9.0,99,0.00,,,0.00,0,Wunderground v.1.15,2013-01-29 14:35:00,
2013-01-29 09:45:00,59.7,50.7,60.37,West,279,4.0,5.0,72,0.00,,,0.00,0,Wunderground v.1.15,2013-01-29 14:45:00,
2013-01-29 09:55:00,60.5,57.9,60.38,West,265,5.0,5.0,91,0.00,,,0.00,0,Wunderground v.1.15,2013-01-29 14:55:00,
2013-01-29 10:00:00,65.0,58.3,30.22,WNW,292,7.0,18.0,79,0.00,,,-99.99,,WeatherLink 5.9.2,2013-01-29 15:00:00,
2013-01-29 10:05:00,61.4,60.8,60.38,WNW,286,6.0,6.0,98,0.00,,,0.00,0,Wunderground v.1.15,2013-01-29 15:05:00,
2013-01-29 10:15:00,62.2,57.6,60.37,West,269,3.0,5.0,85,0.00,,,0.00,0,Wunderground v.1.15,2013-01-29 15:15:00,
2013-01-29 10:25:00,62.9,58.3,60.37,WNW,287,7.0,7.0,85,0.00,,,0.00,0,Wunderground v.1.15,2013-01-29 15:25:00,
2013-01-29 10:30:00,63.4,51.8,60.37,WNW,302,5.0,5.0,66,0.00,,,0.00,0,Wunderground v.1.15,2013-01-29 15:30:00,
2013-01-29 10:40:00,64.2,58.9,60.37,WNW,291,9.0,9.0,83,0.00,,,0.00,0,Wunderground v.1.15,2013-01-29 15:40:00,
2013-01-29 10:45:00,64.6,59.3,60.37,West,272,7.0,9.0,83,0.00,,,0.00,0,Wunderground v.1.15,2013-01-29 15:45:00,
2013-01-29 10:55:00,65.5,59.2,60.37,West,267,3.0,12.0,80,0.00,,,0.00,0,Wunderground v.1.15,2013-01-29 15:55:00,
2013-01-29 11:00:00,65.7,59.4,60.36,West,260,10.0,10.0,80,0.00,,,0.00,0,Wunderground v.1.15,2013-01-29 16:00:00,
2013-01-29 11:10:00,66.4,58.6,60.35,WNW,289,13.0,13.0,76,0.00,,,0.00,0,Wunderground v.1.15,2013-01-29 16:10:00,
2013-01-29 11:20:00,67.0,53.1,60.35,WNW,297,6.0,6.0,61,0.00,,,0.00,0,Wunderground v.1.15,2013-01-29 16:20:00,
2013-01-29 11:25:00,67.2,55.5,60.35,NW,318,4.0,6.0,66,0.00,,,0.00,0,Wunderground v.1.15,2013-01-29 16:25:00,
2013-01-29 11:30:00,71.1,61.6,30.17,WNW,292,7.0,18.0,72,0.00,,,-99.99,,WeatherLink 5.9.2,2013-01-29 16:30:00,
2013-01-29 11:35:00,68.1,56.7,60.34,NW,317,6.0,6.0,67,0.00,,,0.00,0,Wunderground v.1.15,2013-01-29 16:35:00,
2013-01-29 11:40:00,68.6,58.8,60.34,WNW,290,5.0,5.0,71,0.00,,,0.00,0,Wunderground v.1.15,2013-01-29 16:40:00,
2013-01-29 11:50:00,69.4,63.0,60.33,WNW,295,3.0,3.0,80,0.00,,,0.00,0,Wunderground v.1.15,2013-01-29 16:50:00,
2013-01-29 12:00:00,70.2,62.6,60.33,West,279,8.0,8.0,77,0.00,,,0.00,0,Wunderground v.1.15,2013-01-29 17:00:00,
2013-01-29 12:05:00,70.4,62.8,60.32,West,263,10.0,10.0,77,0.00,,,0.00,0,Wunderground v.1.15,2013-01-29 17:05:00,
2013-01-29 12:10:00,70.5,62.9,60.32,WNW,296,4.0,4.0,77,0.00,,,0.00,0,Wunderground v.1.15,2013-01-29 17:10:00,
2013-01-29 12:20:00,71.2,58.4,60.32,WNW,294,5.0,5.0,64,0.00,,,0.00,0,Wunderground v.1.15,2013-01-29 17:20:00,
2013-01-29 12:25:00,71.4,62.7,60.32,WNW,290,6.0,6.0,74,0.00,,,0.00,0,Wunderground v.1.15,2013-01-29 17:25:00,
2013-01-29 12:30:00,73.2,58.5,30.14,West,270,7.0,17.0,60,0.00,,,-99.99,,WeatherLink 5.9.2,2013-01-29 17:30:00,
2013-01-29 12:35:00,71.9,62.4,60.31,West,262,2.0,10.0,72,0.00,,,0.00,0,Wunderground v.1.15,2013-01-29 17:35:00,
2013-01-29 12:40:00,72.1,62.2,60.31,WNW,296,6.0,6.0,71,0.00,,,0.00,0,Wunderground v.1.15,2013-01-29 17:40:00,
2013-01-29 12:50:00,72.3,60.7,60.31,WNW,291,7.0,7.0,67,0.00,,,0.00,0,Wunderground v.1.15,2013-01-29 17:50:00,
2013-01-29 13:00:00,72.4,61.7,60.30,NW,310,6.0,6.0,69,0.00,,,0.00,0,Wunderground v.1.15,2013-01-29 18:00:00,
2013-01-29 13:10:00,72.8,60.8,60.30,West,269,9.0,9.0,66,0.00,,,0.00,0,Wunderground v.1.15,2013-01-29 18:10:00,
2013-01-29 13:15:00,73.1,60.2,60.30,West,261,9.0,9.0,64,0.00,,,0.00,0,Wunderground v.1.15,2013-01-29 18:15:00,
2013-01-29 13:25:00,73.3,59.5,60.29,West,266,11.0,11.0,62,0.00,,,0.00,0,Wunderground v.1.15,2013-01-29 18:25:00,
2013-01-29 13:30:00,74.3,60.4,30.13,West,270,4.0,13.0,62,0.00,,,-99.99,,WeatherLink 5.9.2,2013-01-29 18:30:00,
2013-01-29 13:35:00,73.6,58.9,60.29,WNW,302,10.0,10.0,60,0.00,,,0.00,0,Wunderground v.1.15,2013-01-29 18:35:00,
2013-01-29 13:40:00,73.6,58.4,60.28,NNW,327,7.0,7.0,59,0.00,,,0.00,0,Wunderground v.1.15,2013-01-29 18:40:00,
2013-01-29 13:45:00,73.7,58.0,60.28,West,277,7.0,7.0,58,0.00,,,0.00,0,Wunderground v.1.15,2013-01-29 18:45:00,
2013-01-29 13:55:00,74.0,58.3,60.28,WNW,294,8.0,8.0,58,0.00,,,0.00,0,Wunderground v.1.15,2013-01-29 18:55:00,
2013-01-29 14:00:00,74.3,58.1,60.27,WNW,294,6.0,6.0,57,0.00,,,0.00,0,Wunderground v.1.15,2013-01-29 19:00:00,
2013-01-29 14:10:00,74.6,58.8,60.28,NW,311,5.0,5.0,58,0.00,,,0.00,0,Wunderground v.1.15,2013-01-29 19:10:00,
2013-01-29 14:20:00,74.7,58.0,60.27,West,270,4.0,4.0,56,0.00,,,0.00,0,Wunderground v.1.15,2013-01-29 19:20:00,
2013-01-29 14:25:00,74.3,59.5,60.27,SSW,206,2.0,4.0,60,0.00,,,0.00,0,Wunderground v.1.15,2013-01-29 19:25:00,
2013-01-29 14:30:00,70.2,59.1,30.15,SW,225,4.0,10.0,68,0.00,,,-99.99,,WeatherLink 5.9.2,2013-01-29 19:30:00,
2013-01-29 14:35:00,73.3,59.5,60.28,SW,226,0.0,1.0,62,0.00,,,0.00,0,Wunderground v.1.15,2013-01-29 19:35:00,
2013-01-29 14:40:00,72.8,59.0,60.28,SSW,212,5.0,5.0,62,0.00,,,0.00,0,Wunderground v.1.15,2013-01-29 19:40:00,
2013-01-29 14:45:00,72.3,59.0,60.28,South,190,8.0,8.0,63,0.00,,,0.00,0,Wunderground v.1.15,2013-01-29 19:45:00,
2013-01-29 14:55:00,71.8,59.0,60.28,SW,234,3.0,3.0,64,0.00,,,0.00,0,Wunderground v.1.15,2013-01-29 19:55:00,
2013-01-29 15:00:00,68.7,59.3,30.15,SW,225,3.0,9.0,72,0.00,,,-99.99,,WeatherLink 5.9.2,2013-01-29 20:00:00,
2013-01-29 15:05:00,71.1,58.7,60.28,South,189,4.0,4.0,65,0.00,,,0.00,0,Wunderground v.1.15,2013-01-29 20:05:00,
2013-01-29 15:15:00,70.5,58.6,60.29,West,262,8.0,8.0,66,0.00,,,0.00,0,Wunderground v.1.15,2013-01-29 20:15:00,
2013-01-29 15:25:00,69.8,58.8,60.29,WSW,244,8.0,8.0,68,0.00,,,0.00,0,Wunderground v.1.15,2013-01-29 20:25:00,
2013-01-29 15:30:00,69.7,58.7,60.29,SSW,211,4.0,4.0,68,0.00,,,0.00,0,Wunderground v.1.15,2013-01-29 20:30:00,
2013-01-29 15:40:00,69.3,58.7,60.29,WSW,243,0.0,0.0,69,0.00,,,0.00,0,Wunderground v.1.15,2013-01-29 20:40:00,
2013-01-29 15:50:00,68.7,58.5,60.29,WSW,242,0.0,0.0,70,0.00,,,0.00,0,Wunderground v.1.15,2013-01-29 20:50:00,
2013-01-29 15:55:00,68.5,59.1,60.29,SW,235,5.0,5.0,72,0.00,,,0.00,0,Wunderground v.1.15,2013-01-29 20:55:00,
2013-01-29 16:00:00,65.8,59.5,30.14,SW,225,3.0,11.0,80,0.00,,,-99.99,,WeatherLink 5.9.2,2013-01-29 21:00:00,
2013-01-29 16:05:00,68.0,58.6,60.29,SSW,209,3.0,3.0,72,0.00,,,0.00,0,Wunderground v.1.15,2013-01-29 21:05:00,
2013-01-29 16:10:00,67.9,58.9,60.29,SW,235,1.0,1.0,73,0.00,,,0.00,0,Wunderground v.1.15,2013-01-29 21:10:00,
2013-01-29 16:20:00,67.5,58.5,60.28,SSW,200,3.0,3.0,73,0.00,,,0.00,0,Wunderground v.1.15,2013-01-29 21:20:00,
2013-01-29 16:30:00,67.0,58.4,60.29,SW,225,3.0,3.0,74,0.00,,,0.00,0,Wunderground v.1.15,2013-01-29 21:30:00,
2013-01-29 16:35:00,66.8,58.6,60.29,WSW,243,3.0,3.0,75,0.00,,,0.00,0,Wunderground v.1.15,2013-01-29 21:35:00,
2013-01-29 16:45:00,66.1,58.7,60.29,SSW,195,0.0,5.0,77,0.00,,,0.00,0,Wunderground v.1.15,2013-01-29 21:45:00,
2013-01-29 16:55:00,65.5,58.5,60.29,West,271,1.0,4.0,78,0.00,,,0.00,0,Wunderground v.1.15,2013-01-29 21:55:00,
2013-01-29 17:00:00,61.1,56.9,30.15,SW,225,1.0,8.0,86,0.00,,,-99.99,,WeatherLink 5.9.2,2013-01-29 22:00:00,
2013-01-29 17:05:00,64.7,58.4,60.29,West,263,1.0,3.0,80,0.00,,,0.00,0,Wunderground v.1.15,2013-01-29 22:05:00,
2013-01-29 17:10:00,64.4,58.1,60.29,WNW,283,1.0,1.0,80,0.00,,,0.00,0,Wunderground v.1.15,2013-01-29 22:10:00,
2013-01-29 17:20:00,63.5,58.6,60.29,WSW,244,0.0,0.0,84,0.00,,,0.00,0,Wunderground v.1.15,2013-01-29 22:20:00,
2013-01-29 17:25:00,63.1,58.2,60.29,West,262,0.0,0.0,84,0.00,,,0.00,0,Wunderground v.1.15,2013-01-29 22:25:00,
2013-01-29 17:30:00,59.0,55.8,30.16,SW,225,0.0,2.0,89,0.00,,,-99.99,,WeatherLink 5.9.2,2013-01-29 22:30:00,
2013-01-29 17:35:00,62.3,58.4,60.29,SW,219,1.0,2.0,87,0.00,,,0.00,0,Wunderground v.1.15,2013-01-29 22:35:00,
2013-01-29 17:40:00,61.9,58.0,60.29,WSW,245,3.0,3.0,87,0.00,,,0.00,0,Wunderground v.1.15,2013-01-29 22:40:00,
2013-01-29 17:50:00,61.1,57.5,60.30,WSW,240,0.0,0.0,88,0.00,,,0.00,0,Wunderground v.1.15,2013-01-29 22:50:00,
2013-01-29 18:00:00,60.4,56.2,60.30,SW,215,0.0,0.0,86,0.00,,,0.00,0,Wunderground v.1.15,2013-01-29 23:00:00,
2013-01-29 18:10:00,59.8,55.9,60.30,SW,225,1.0,1.0,87,0.00,,,0.00,0,Wunderground v.1.15,2013-01-29 23:10:00,
2013-01-29 18:20:00,59.0,55.1,60.30,SW,225,0.0,0.0,87,0.00,,,0.00,0,Wunderground v.1.15,2013-01-29 23:20:00,
2013-01-29 18:25:00,58.6,55.4,60.30,SW,225,0.0,0.0,89,0.00,,,0.00,0,Wunderground v.1.15,2013-01-29 23:25:00,
2013-01-29 18:30:00,55.9,53.6,30.15,North,-999,0.0,0.0,92,0.00,,,-99.99,,WeatherLink 5.9.2,2013-01-29 23:30:00,
2013-01-29 18:35:00,57.9,54.7,60.30,SW,225,0.0,0.0,89,0.00,,,0.00,0,Wunderground v.1.15,2013-01-29 23:35:00,
2013-01-29 18:40:00,57.6,54.7,60.30,SW,225,0.0,0.0,90,0.00,,,0.00,0,Wunderground v.1.15,2013-01-29 23:40:00,
2013-01-29 18:45:00,57.3,54.4,60.30,SW,225,0.0,0.0,90,0.00,,,0.00,0,Wunderground v.1.15,2013-01-29 23:45:00,
2013-01-29 18:55:00,57.0,54.1,60.30,SW,225,0.0,0.0,90,0.00,,,0.00,0,Wunderground v.1.15,2013-01-29 23:55:00,
2013-01-29 19:00:00,55.1,53.1,30.16,SW,225,0.0,3.0,93,0.00,,,-99.99,,WeatherLink 5.9.2,2013-01-30 00:00:00,
2013-01-29 19:05:00,56.6,54.0,60.30,SW,225,0.0,0.0,91,0.00,,,0.00,0,Wunderground v.1.15,2013-01-30 00:05:00,
2013-01-29 19:15:00,56.1,53.5,60.30,SW,224,0.0,0.0,91,0.00,,,0.00,0,Wunderground v.1.15,2013-01-30 00:15:00,
2013-01-29 19:25:00,55.7,53.7,60.30,SW,225,0.0,0.0,93,0.00,,,0.00,0,Wunderground v.1.15,2013-01-30 00:25:00,
2013-01-29 19:30:00,55.4,53.1,60.30,SW,224,0.0,0.0,92,0.00,,,0.00,0,Wunderground v.1.15,2013-01-30 00:30:00,
2013-01-29 19:40:00,55.1,52.5,60.30,SW,224,0.0,0.0,91,0.00,,,0.00,0,Wunderground v.1.15,2013-01-30 00:40:00,
2013-01-29 19:50:00,55.0,52.7,60.30,SW,225,0.0,0.0,92,0.00,,,0.00,0,Wunderground v.1.15,2013-01-30 00:50:00,
2013-01-29 19:55:00,55.2,53.2,60.30,SW,215,0.0,0.0,93,0.00,,,0.00,0,Wunderground v.1.15,2013-01-30 00:55:00,
2013-01-29 20:00:00,55.9,54.5,30.16,SW,225,0.0,5.0,95,0.00,,,-99.99,,WeatherLink 5.9.2,2013-01-30 01:00:00,
2013-01-29 20:05:00,55.2,53.2,60.30,SW,215,0.0,0.0,93,0.00,,,0.00,0,Wunderground v.1.15,2013-01-30 01:05:00,
2013-01-29 20:15:00,54.9,52.9,60.30,SW,215,0.0,0.0,93,0.00,,,0.00,0,Wunderground v.1.15,2013-01-30 01:15:00,
2013-01-29 20:25:00,55.1,53.4,60.31,SW,227,0.0,0.0,94,0.00,,,0.00,0,Wunderground v.1.15,2013-01-30 01:25:00,
2013-01-29 20:30:00,56.5,55.1,30.17,WSW,247,0.0,4.0,95,0.00,,,-99.99,,WeatherLink 5.9.2,2013-01-30 01:30:00,
2013-01-29 20:35:00,55.6,53.9,60.30,South,181,0.0,0.0,94,0.00,,,0.00,0,Wunderground v.1.15,2013-01-30 01:35:00,
2013-01-29 20:45:00,55.7,54.0,60.30,SSW,195,0.0,3.0,94,0.00,,,0.00,0,Wunderground v.1.15,2013-01-30 01:45:00,
2013-01-29 20:55:00,55.9,54.2,60.30,SW,215,1.0,1.0,94,0.00,,,0.00,0,Wunderground v.1.15,2013-01-30 01:55:00,
2013-01-29 21:00:00,58.0,56.9,30.16,SW,225,1.0,6.0,96,0.00,,,-99.99,,WeatherLink 5.9.2,2013-01-30 02:00:00,
2013-01-29 21:05:00,56.1,54.4,60.30,WSW,252,0.0,0.0,94,0.00,,,0.00,0,Wunderground v.1.15,2013-01-30 02:05:00,
2013-01-29 21:10:00,56.1,54.4,60.30,SW,215,1.0,1.0,94,0.00,,,0.00,0,Wunderground v.1.15,2013-01-30 02:10:00,
2013-01-29 21:15:00,56.3,54.6,60.30,SW,214,0.0,1.0,94,0.00,,,0.00,0,Wunderground v.1.15,2013-01-30 02:15:00,
2013-01-29 21:25:00,56.7,55.3,60.30,WSW,237,0.0,0.0,95,0.00,,,0.00,0,Wunderground v.1.15,2013-01-30 02:25:00,
2013-01-29 21:30:00,58.7,57.6,30.16,SW,225,1.0,7.0,96,0.00,,,-99.99,,WeatherLink 5.9.2,2013-01-30 02:30:00,
2013-01-29 21:35:00,57.4,56.0,60.31,SSW,199,0.0,0.0,95,0.00,,,0.00,0,Wunderground v.1.15,2013-01-30 02:35:00,
2013-01-29 21:40:00,57.6,56.2,60.31,SW,224,0.0,0.0,95,0.00,,,0.00,0,Wunderground v.1.15,2013-01-30 02:40:00,
2013-01-29 21:50:00,58.1,56.7,60.30,SW,224,0.0,0.0,95,0.00,,,0.00,0,Wunderground v.1.15,2013-01-30 02:50:00,
2013-01-29 21:55:00,58.2,57.1,60.30,SW,231,3.0,3.0,96,0.00,,,0.00,0,Wunderground v.1.15,2013-01-30 02:55:00,
2013-01-29 22:00:00,58.8,57.7,30.16,SW,225,1.0,7.0,96,0.00,,,-99.99,,WeatherLink 5.9.2,2013-01-30 03:00:00,
2013-01-29 22:05:00,58.5,57.4,60.31,SW,227,0.0,2.0,96,0.00,,,0.00,0,Wunderground v.1.15,2013-01-30 03:05:00,
2013-01-29 22:15:00,58.5,57.4,60.31,SW,227,0.0,0.0,96,0.00,,,0.00,0,Wunderground v.1.15,2013-01-30 03:15:00,
2013-01-29 22:25:00,58.7,57.6,60.31,WSW,238,0.0,1.0,96,0.00,,,0.00,0,Wunderground v.1.15,2013-01-30 03:25:00,
2013-01-29 22:30:00,58.4,57.3,30.15,SW,225,0.0,4.0,96,0.00,,,-99.99,,WeatherLink 5.9.2,2013-01-30 03:30:00,
2013-01-29 22:35:00,58.8,57.7,60.31,NNW,327,0.0,1.0,96,0.00,,,0.00,0,Wunderground v.1.15,2013-01-30 03:35:00,
2013-01-29 22:45:00,58.6,57.5,60.31,SW,233,0.0,0.0,96,0.00,,,0.00,0,Wunderground v.1.15,2013-01-30 03:45:00,
2013-01-29 22:55:00,58.8,57.7,60.30,West,268,0.0,1.0,96,0.00,,,0.00,0,Wunderground v.1.15,2013-01-30 03:55:00,
2013-01-29 23:00:00,57.3,56.2,30.16,SW,225,0.0,3.0,96,0.00,,,-99.99,,WeatherLink 5.9.2,2013-01-30 04:00:00,
2013-01-29 23:05:00,58.9,57.8,60.30,SW,234,0.0,4.0,96,0.00,,,0.00,0,Wunderground v.1.15,2013-01-30 04:05:00,
2013-01-29 23:10:00,58.8,57.7,60.30,SSW,206,0.0,0.0,96,0.00,,,0.00,0,Wunderground v.1.15,2013-01-30 04:10:00,
2013-01-29 23:20:00,58.4,57.3,60.30,SW,222,0.0,0.0,96,0.00,,,0.00,0,Wunderground v.1.15,2013-01-30 04:20:00,
2013-01-29 23:30:00,58.0,56.9,60.29,SW,221,2.0,2.0,96,0.00,,,0.00,0,Wunderground v.1.15,2013-01-30 04:30:00,
2013-01-29 23:35:00,57.7,56.6,60.30,SW,221,0.0,2.0,96,0.00,,,0.00,0,Wunderground v.1.15,2013-01-30 04:35:00,
2013-01-29 23:45:00,57.5,56.4,60.30,SW,220,0.0,0.0,96,0.00,,,0.00,0,Wunderground v.1.15,2013-01-30 04:45:00,
2013-01-29 23:55:00,57.3,56.2,60.30,SW,222,0.0,0.0,96,0.00,,,0.00,0,Wunderground v.1.15,2013-01-30 04:55:00,